Weather History for West Palm Beach, FL

Change the Weather History Date:

Thursday, October 13, 2011

  Actual Average Record
Temperature  
Mean Temperature 81 °F 79 °F  
Max Temperature 90 °F 86 °F 91 °F (1990)
Min Temperature 72 °F 73 °F 61 °F (1977)
Degree Days  
Heating Degree Days 0 0  
Month to date heating degree days 0 0  
Since 1 July heating degree days 0 0  
Cooling Degree Days 16 14  
Month to date cooling degree days 208 193  
Year to date cooling degree days 4100 3401  
Growing Degree Days 32 (Base 50)    
Moisture  
Dew Point 70 °F    
Average Humidity 69    
Maximum Humidity 94    
Minimum Humidity 44    
Precipitation  
Precipitation 0.00 in 0.16 in 3.60 in (1922)
Month to date precipitation 0.15 2.47  
Year to date precipitation 35.92 51.54  
Snow  
Snow 0.00 in - - ()
Month to date snowfall 0.0  
Since 1 July snowfall 0.0  
Since 1 September snowfall 0.0  
Snow Depth 0.00 in    
Sea Level Pressure  
Sea Level Pressure 29.79 in    
Wind  
Wind Speed 6 mph (SW)    
Max Wind Speed 15 mph    
Max Gust Speed 18 mph    
Visibility 10 miles    
Events      
T = Trace of Precipitation, MM = Missing Value Source: NWS Daily Summary

Daily Weather History Graph

Daily Weather History Graph

Search for Another Location

Airport:

Trip Planner

Search our weather history database for the weather conditions in past years. The results will help you decide how hot, cold, wet, or windy it might be!

Date:

Astronomy

Oct. 13, 2011 Rise Set
Actual Time 7:18 AM EDT 6:54 PM EDT
Civil Twilight 6:55 AM EDT 7:17 PM EDT
Nautical Twilight 6:28 AM EDT 7:44 PM EDT
Astronomical Twilight 6:01 AM EDT 8:11 PM EDT
Moon 7:44 PM EDT (10/13) 8:34 AM EDT (10/13)
Length of Visible Light 12h 22m
Length of Day
11h 35m
Full, 98% of the Moon is Illuminated
Oct 13
Full
Oct 19
Last Quarter
Oct 26
New
Nov 2
First Quarter
Nov 10
Full

Hourly Weather History & Observations

Time (EDT) Temp. Heat Index Dew Point Humidity Pressure Visibility Wind Dir Wind Speed Gust Speed Precip Events Conditions
12:53 AM 75.0 °F - 72.0 °F 90% 29.84 in 10.0 mi Calm Calm - N/A   Scattered Clouds
1:53 AM 73.9 °F - 72.0 °F 93% 29.82 in 10.0 mi West 5.8 mph - N/A   Mostly Cloudy
2:53 AM 73.9 °F - 72.0 °F 93% 29.80 in 10.0 mi West 4.6 mph - N/A   Mostly Cloudy
3:53 AM 73.9 °F - 72.0 °F 93% 29.78 in 10.0 mi SSW 3.5 mph - N/A   Mostly Cloudy
4:53 AM 73.0 °F - 71.1 °F 93% 29.79 in 10.0 mi West 4.6 mph - N/A   Scattered Clouds
5:53 AM 73.0 °F - 72.0 °F 96% 29.79 in 10.0 mi Calm Calm - N/A   Scattered Clouds
6:53 AM 73.0 °F - 71.1 °F 93% 29.81 in 10.0 mi WSW 3.5 mph - N/A   Mostly Cloudy
7:53 AM 73.0 °F - 72.0 °F 96% 29.81 in 10.0 mi West 3.5 mph - N/A   Mostly Cloudy
8:53 AM 75.9 °F - 73.0 °F 91% 29.82 in 10.0 mi WNW 3.5 mph - N/A   Mostly Cloudy
9:53 AM 81.0 °F 85.2 °F 72.0 °F 74% 29.82 in 10.0 mi Calm Calm - N/A   Scattered Clouds
10:53 AM 82.9 °F 86.5 °F 69.1 °F 63% 29.83 in 10.0 mi SSW 5.8 mph - N/A   Scattered Clouds
11:53 AM 84.9 °F 88.2 °F 68.0 °F 57% 29.82 in 10.0 mi Variable 3.5 mph - N/A   Scattered Clouds
12:53 PM 87.1 °F 89.9 °F 66.9 °F 51% 29.81 in 10.0 mi SW 6.9 mph - N/A   Mostly Cloudy
1:53 PM 88.0 °F 90.3 °F 66.0 °F 48% 29.78 in 10.0 mi SW 5.8 mph 18.4 mph N/A   Mostly Cloudy
2:53 PM 89.1 °F 91.0 °F 64.9 °F 45% 29.76 in 10.0 mi WSW 8.1 mph - N/A   Mostly Cloudy
3:53 PM 90.0 °F 91.7 °F 64.9 °F 43% 29.74 in 10.0 mi WSW 6.9 mph - N/A   Scattered Clouds
4:53 PM 89.1 °F 91.0 °F 64.9 °F 45% 29.72 in 10.0 mi West 8.1 mph - N/A   Scattered Clouds
5:53 PM 84.0 °F 89.6 °F 72.0 °F 67% 29.72 in 10.0 mi SSE 13.8 mph - N/A   Scattered Clouds
6:53 PM 82.9 °F 88.8 °F 73.0 °F 72% 29.73 in 10.0 mi South 12.7 mph - N/A   Scattered Clouds
7:53 PM 82.9 °F 88.0 °F 72.0 °F 69% 29.75 in 10.0 mi South 9.2 mph - N/A   Scattered Clouds
8:53 PM 82.0 °F 86.7 °F 72.0 °F 71% 29.77 in 10.0 mi South 6.9 mph - N/A   Scattered Clouds
9:53 PM 81.0 °F 84.4 °F 70.0 °F 69% 29.79 in 10.0 mi SW 10.4 mph - N/A   Scattered Clouds
10:53 PM 80.1 °F 83.8 °F 72.0 °F 76% 29.81 in 10.0 mi WSW 9.2 mph - N/A   Scattered Clouds
11:53 PM 79.0 °F - 71.1 °F 77% 29.82 in 10.0 mi WSW 6.9 mph - N/A   Mostly Cloudy